Flag for Canada Weather past 2 weeks in Moncton, New Brunswick, Canada

Now
48 °F

Partly sunny.


Feels Like: 43 °F
Forecast: 43 / 53 °F
Wind: 14 mph from Northeast

Location: Moncton

Current Time: Oct 22, 2014 at 11:14:37 AM

Latest Report: Oct 22, 2014 at 10:00 AM


Visibility: 15 mi

Pressure: 30.36 "Hg

Humidity: 76%

Dew point: 41 °F

Location of MonctonLocation

Historic Weather in Moncton — Graph

°F

Moncton temperature yesterday

Maximum temperature yesterday: 52 °F (at 3:00 PM)
Minimum temperature yesterday: 30 °F (at 7:00 AM)
Average temperature yesterday: 40 °F

Past Weeks' High & Low Weather Summary

 TemperatureHumidityPressure
High75 °F (Oct 15, 3:00 PM)100% (Oct 9, 2:00 AM)30.36 "Hg (Oct 9, 2:00 AM)
Low30 °F (Oct 21, 7:00 AM)39% (Oct 13, 2:00 PM)29.45 "Hg (Oct 19, 3:00 AM)
Average52 °F79%29.94 "Hg
* Reported Oct 7 10:00 AM — Oct 22 10:00 AM, Moncton, Weather by CustomWeather, © 2014

Note: Actual official high and low records may vary slightly from our data, if they occured in-between our weather recording intervals... More about our weather records

Advertising

Moncton weather history for previous 24 hours

 ConditionsComfort  
Time TempWeatherWind HumidityBarometerVisibility
10:00 AM
Oct 22
48 °FPartly sunny.14 mph76%30.36 "Hg15 mi
9:00 AM46 °FPartly sunny.12 mph76%30.36 "Hg15 mi
8:00 AM45 °FPassing clouds.8 mph81%30.34 "Hg15 mi
7:00 AM45 °FPassing clouds.9 mph76%30.32 "Hg15 mi
6:00 AM45 °FPassing clouds.10 mph76%30.31 "Hg15 mi
5:00 AM45 °FOvercast.9 mph81%30.30 "Hg15 mi
4:47 AM43 °FMostly cloudy.8 mph87%30.31 "Hg15 mi
4:00 AM43 °FSprinkles. Mostly cloudy.9 mph81%30.31 "Hg15 mi
3:00 AM45 °FSprinkles. Overcast.9 mph71%30.30 "Hg15 mi
2:00 AM43 °FSprinkles. Overcast.7 mph81%30.30 "Hg15 mi
1:00 AM43 °FOvercast.7 mph81%30.29 "Hg15 mi
12:00 AM41 °FMostly cloudy.5 mph81%30.27 "Hg15 mi
11:00 PM
Oct 21
41 °FMostly cloudy.3 mph81%30.27 "Hg15 mi
10:00 PM43 °FMostly cloudy.6 mph76%30.25 "Hg15 mi
9:00 PM43 °FMostly cloudy.5 mph76%30.23 "Hg15 mi
8:00 PM43 °FOvercast.5 mph76%30.21 "Hg15 mi
7:00 PM50 °FMore clouds than sun.No wind50%30.21 "Hg15 mi
6:00 PM50 °FMostly cloudy.2 mph54%30.18 "Hg15 mi
5:00 PM50 °FBroken clouds.7 mph50%30.17 "Hg15 mi
4:00 PM52 °FPartly sunny.8 mph44%30.15 "Hg15 mi
3:00 PM52 °FPartly sunny.12 mph44%30.14 "Hg15 mi
2:00 PM50 °FPassing clouds.5 mph43%30.14 "Hg15 mi
1:00 PM48 °FPassing clouds.7 mph54%30.13 "Hg15 mi
12:00 PM45 °FScattered clouds.7 mph57%30.14 "Hg15 mi
11:00 AM39 °FBroken clouds.6 mph70%30.14 "Hg15 mi
Weather by CustomWeather, © 2014

See weather overviewHow to use our weather pages